GW7352 Weather Reports


time (UTC)temp
F
wind
direction
speed
knots
gust
knots
rain 1hr
in
rain 24hr
in
rain mn
in
humidity
%
barometer
mb
20260506204143 70 43 1.7 7.8 0.00 0.00 0.00 37 935.6
20260506203122 70 12 0.9 5.2 0.00 0.00 0.00 36 935.8
20260506202123 68 30 0.9 5.2 0.00 0.00 0.00 37 936.0
20260506201126 68 36 1.7 7.0 0.00 0.00 0.00 37 936.2
20260506200124 67 16 1.7 6.1 0.00 0.00 0.00 39 936.2
20260506195122 67 31 1.7 6.1 0.00 0.00 0.00 39 936.2
20260506194122 65 53 0.0 2.6 0.00 0.00 0.00 41 936.5
20260506193123 65 34 0.9 5.2 0.00 0.00 0.00 40 936.7
20260506192123 65 14 0.9 3.5 0.00 0.00 0.00 39 936.8
20260506191143 67 28 0.9 4.3 0.00 0.00 0.00 37 936.9
20260506190125 67 32 0.9 7.0 0.00 0.00 0.00 38 937.0
20260506185127 66 43 1.7 7.0 0.00 0.00 0.00 38 937.0
20260506184127 66 25 0.9 4.3 0.00 0.00 0.00 39 937.1
20260506183124 64 22 0.9 4.3 0.00 0.00 0.00 41 937.2
20260506182143 63 52 0.9 5.2 0.00 0.00 0.00 43 937.4
20260506181123 61 32 0.9 4.3 0.00 0.00 0.00 44 937.6
20260506180122 62 24 0.9 5.2 0.00 0.00 0.00 43 937.7
20260506175122 61 228 0.9 7.0 0.00 0.00 0.00 43 937.7
20260506174122 61 338 0.0 0.0 0.00 0.00 0.00 44 937.7
20260506173122 60 45 0.0 2.6 0.00 0.00 0.00 46 938.1
20260506172123 60 23 0.9 6.1 0.00 0.00 0.00 44 938.2
20260506171123 60 23 0.0 1.7 0.00 0.00 0.00 45 938.2
20260506170144 60 41 0.9 6.1 0.00 0.00 0.00 46 938.4
20260506165123 58 16 0.9 7.0 0.00 0.00 0.00 48 938.4
20260506164123 57 5 0.9 6.1 0.00 0.00 0.00 49 938.5
20260506163146 57 346 0.9 5.2 0.00 0.00 0.00 49 938.5
20260506162122 56 175 0.9 5.2 0.00 0.00 0.00 50 938.8
20260506161149 55 50 0.0 5.2 0.00 0.00 0.00 52 939.0
20260506161145 55 43 0.9 5.2 0.00 0.00 0.00 52 939.0
20260506160125 55 214 0.9 3.5 0.00 0.00 0.00 53 939.2
20260506155143 54 349 0.0 2.6 0.00 0.00 0.00 55 939.2
20260506154123 53 59 0.0 3.5 0.00 0.00 0.00 57 939.4
20260506153122 51 203 0.0 0.0 0.00 0.00 0.00 59 939.4
20260506152122 50 45 0.0 0.0 0.00 0.00 0.00 63 939.4
20260506151127 49 68 0.0 0.0 0.00 0.00 0.00 64 939.6
20260506150144 48 203 0.0 0.0 0.00 0.00 0.00 67 939.5
20260506145122 47 270 0.0 0.0 0.00 0.00 0.00 67 939.5
20260506144122 46 270 0.0 0.0 0.00 0.00 0.00 66 939.6
20260506143122 45 203 0.0 0.0 0.00 0.00 0.00 69 939.6
20260506142143 44 203 0.0 0.0 0.00 0.00 0.00 70 939.7
20260506141122 44 270 0.0 0.0 0.00 0.00 0.00 72 939.6
20260506140143 43 203 0.0 0.0 0.00 0.00 0.00 73 939.6
20260506135122 43 270 0.0 0.0 0.00 0.00 0.00 73 939.6
20260506134124 43 180 0.0 0.0 0.00 0.00 0.00 72 939.6
20260506133125 43 225 0.0 0.0 0.00 0.00 0.00 70 939.4
20260506132126 43 180 0.0 0.0 0.00 0.00 0.00 70 939.2
20260506131143 43 180 0.0 0.0 0.00 0.00 0.00 71 939.2
20260506130122 43 23 0.0 0.0 0.00 0.00 0.00 71 939.2
20260506125122 42 45 0.0 0.0 0.00 0.00 0.00 71 939.2
20260506124122 42 180 0.0 0.0 0.00 0.00 0.00 71 939.2
20260506123143 42 90 0.0 0.0 0.00 0.00 0.00 70 939.0
20260506122124 43 315 0.0 0.0 0.00 0.00 0.00 69 938.9
20260506121144 43 180 0.0 0.0 0.00 0.00 0.00 68 938.9
20260506120125 43 45 0.0 0.0 0.00 0.00 0.00 68 938.9
20260506115122 44 180 0.0 0.0 0.00 0.00 0.00 66 938.9
20260506114122 43 225 0.0 0.0 0.00 0.00 0.00 68 938.9
20260506113122 43 68 0.0 0.0 0.00 0.00 0.00 67 938.8
20260506112122 43 180 0.0 0.0 0.00 0.00 0.00 66 938.8
20260506111122 44 225 0.0 0.0 0.00 0.00 0.00 66 938.8
20260506110122 44 180 0.0 0.0 0.00 0.00 0.00 65 938.7
20260506105122 44 203 0.0 0.0 0.00 0.00 0.00 64 938.7
20260506104125 44 158 0.0 0.0 0.00 0.00 0.00 64 938.6
20260506103122 45 180 0.0 0.0 0.00 0.00 0.00 64 938.7
20260506102143 45 135 0.0 0.0 0.00 0.00 0.00 63 938.6
20260506101122 45 45 0.0 0.0 0.00 0.00 0.00 61 938.7
20260506100122 45 203 0.0 0.0 0.00 0.00 0.00 62 938.8
20260506095122 46 113 0.0 0.0 0.00 0.00 0.00 61 938.8
20260506094122 46 45 0.0 0.0 0.00 0.00 0.00 60 938.6
20260506093122 46 248 0.0 0.0 0.00 0.00 0.00 58 938.5
20260506092122 46 203 0.0 0.0 0.00 0.00 0.00 58 938.5
20260506091122 46 135 0.0 0.0 0.00 0.00 0.00 58 938.5
20260506090122 46 90 0.0 0.0 0.00 0.00 0.00 57 938.5
20260506085143 47 113 0.0 0.0 0.00 0.00 0.00 56 938.5
20260506084122 47 225 0.0 0.0 0.00 0.00 0.00 57 938.4
20260506083122 47 180 0.0 0.0 0.00 0.00 0.00 55 938.4
20260506082122 47 113 0.0 0.0 0.00 0.00 0.00 56 938.2
20260506081122 47 180 0.0 0.0 0.00 0.00 0.00 55 938.1
20260506080147 48 180 0.0 0.0 0.00 0.00 0.00 56 937.9
20260506073122 49 180 0.0 0.0 0.00 0.00 0.00 52 937.9
20260506072122 49 180 0.0 0.0 0.00 0.00 0.00 51 937.7
20260506071122 49 203 0.0 0.0 0.00 0.00 0.00 51 937.7
20260506070122 50 135 0.0 0.0 0.00 0.00 0.00 51 937.7
20260506062122 51 180 0.0 0.0 0.00 0.00 0.00 49 937.4
20260506061122 51 180 0.0 0.0 0.00 0.00 0.00 49 937.2
20260506060122 51 158 0.0 0.0 0.00 0.00 0.00 48 937.2
20260506051125 53 113 0.0 0.0 0.00 0.00 0.00 46 937.1
20260506050122 53 225 0.0 0.0 0.00 0.00 0.00 46 937.0
20260506045122 54 90 0.0 0.0 0.00 0.00 0.00 45 937.0
20260506044122 54 90 0.0 0.0 0.00 0.00 0.00 46 936.9
20260506043122 55 113 0.0 0.0 0.00 0.00 0.00 45 936.7
20260506042122 56 180 0.0 0.0 0.00 0.00 0.00 44 936.6
20260506041122 57 113 0.0 0.0 0.00 0.00 0.00 43 936.4
20260506040126 57 135 0.0 0.0 0.00 0.00 0.00 42 936.4
20260506035126 58 180 0.0 0.0 0.00 0.00 0.00 42 936.4
20260506034122 59 203 0.0 0.0 0.00 0.00 0.00 40 936.2
20260506033122 60 113 0.0 0.0 0.00 0.00 0.00 39 936.1
20260506032143 62 45 0.0 0.0 0.00 0.00 0.00 37 935.9
20260506031122 63 226 0.0 2.6 0.00 0.00 0.00 33 935.8
20260506030143 64 23 0.0 0.0 0.00 0.00 0.00 33 935.6
20260506025122 66 140 0.0 2.6 0.00 0.00 0.00 31 935.6
20260506024143 67 165 0.9 4.3 0.00 0.00 0.00 30 935.5
20260506023122 68 253 0.9 2.6 0.00 0.00 0.00 29 935.4
20260506022122 68 327 0.9 4.3 0.00 0.00 0.00 27 935.2
20260506021122 68 356 1.7 4.3 0.00 0.00 0.00 28 935.2
20260506020122 69 350 1.7 3.5 0.00 0.00 0.00 27 935.2
20260506015122 69 5 1.7 7.0 0.00 0.00 0.00 27 935.2
20260506014122 70 42 2.6 7.0 0.00 0.00 0.00 27 935.2
20260506013122 71 14 1.7 7.8 0.00 0.00 0.00 26 935.4
20260506012125 73 8 1.7 5.2 0.00 0.00 0.00 26 935.2
20260506011122 73 18 1.7 7.0 0.00 0.00 0.00 26 935.4
20260506010143 73 6 1.7 6.1 0.00 0.00 0.00 26 935.4
20260506005122 74 44 1.7 7.0 0.00 0.00 0.00 25 935.4
20260506004123 75 5 1.7 5.2 0.00 0.00 0.00 25 935.4
20260506003123 75 1 1.7 7.8 0.00 0.00 0.00 25 935.5
20260506002123 75 56 0.9 6.1 0.00 0.00 0.00 25 935.6
20260506001123 75 24 1.7 5.2 0.00 0.00 0.00 25 935.7
20260506000128 76 3 1.7 4.3 0.00 0.00 0.00 25 935.7
20260505235124 75 345 2.6 7.0 0.00 0.00 0.00 25 935.8
20260505234124 75 47 1.7 7.0 0.00 0.00 0.00 26 935.8
20260505233144 77 32 1.7 7.0 0.00 0.00 0.00 24 935.9
20260505232145 75 59 2.6 7.0 0.00 0.00 0.00 25 936.1
20260505231125 75 39 2.6 7.8 0.00 0.00 0.00 25 936.2
20260505230124 75 343 1.7 7.8 0.00 0.00 0.00 25 936.4
20260505225124 76 27 2.6 8.7 0.00 0.00 0.00 25 936.4
20260505224128 76 17 1.7 7.0 0.00 0.00 0.00 26 936.5
20260505223123 76 32 1.7 7.0 0.00 0.00 0.00 26 936.6
20260505222123 75 23 1.7 7.0 0.00 0.00 0.00 26 936.6
20260505221123 74 32 2.6 9.6 0.00 0.00 0.00 27 936.8
20260505220123 75 356 1.7 4.3 0.00 0.00 0.00 26 936.9
20260505215123 75 19 2.6 7.0 0.00 0.00 0.00 26 936.9
20260505214123 74 33 1.7 7.8 0.00 0.00 0.00 27 937.1
20260505213144 75 32 1.7 9.6 0.00 0.00 0.00 27 937.2
20260505212123 73 48 2.6 11.3 0.00 0.00 0.00 28 937.2
20260505211123 73 30 2.6 7.8 0.00 0.00 0.00 27 937.4
20260505210123 73 12 1.7 7.0 0.00 0.00 0.00 29 937.6
20260505205123 72 46 1.7 6.1 0.00 0.00 0.00 29 937.6